Regional Weather Roundup
Issued by NWS

Home | Current Version | Previous Version | Text Only | Print | Product List | Glossary Off
Versions: 1 2 3 4 5 6 7 8 9 10 11 12 13 14 15 16 17 18 19 20 21 22 23 24 25 26 27 28 29 30 31 32 33 34 35 36 37 38 39 40 41 42 43 44 45 46 47 48 49 50

000
ASUS43 KLMK 261502
RWRKY
KENTUCKY REGIONAL WEATHER ROUNDUP
NATIONAL WEATHER SERVICE LOUISVILLE KY
1000 AM EST FRI DEC 26 2014

NOTE "FAIR" INDICATES FEW OR NO CLOUDS BELOW 12,000 FEET
WITH NO SIGNIFICANT WEATHER AND/OR OBSTRUCTIONS TO VISIBILITY.

KYZ001>023-026-027-061>063-070>075-261600-
WESTERN AND SOUTH CENTRAL KENTUCKY

CITY           SKY/WX    TMP DP  RH WIND       PRES   REMARKS
PADUCAH        MOSUNNY   44  36  73 S8        30.22R
HENDERSON      SUNNY     43  36  75 S12       30.21S
OWENSBORO      SUNNY     41  37  85 S10       30.24S
HOPKINSVILLE   SUNNY     40  36  83 S5        30.26R
BOWLING GREEN  SUNNY     43  36  76 S8        30.30R
GLASGOW        NOT AVBL
$$

KYZ024-025-028>034-038-045-046-053-261600-
NORTH CENTRAL KENTUCKY

CITY           SKY/WX    TMP DP  RH WIND       PRES   REMARKS
LOUISVILLE/SDF MOSUNNY   43  37  79 S9        30.26R
LOUISVILLE/LOU SUNNY     41  35  79 S9        30.27R
FORT KNOX      SUNNY     39  35  85 S8        30.26R WCI  34
$$

KYZ035>037-039>044-047>052-055>060-089>105-261600-
NORTHEAST KENTUCKY

CITY           SKY/WX    TMP DP  RH WIND       PRES   REMARKS
LEXINGTON      SUNNY     38  34  85 S12       30.29R WCI  30
COVINGTON      MOSUNNY   39  32  76 S10       30.24R WCI  32
FRANKFORT      SUNNY     38  33  82 S12       30.27R WCI  30
$$

KYZ054-064>069-076>088-106>120-261600-
SOUTHEAST KENTUCKY

CITY           SKY/WX    TMP DP  RH WIND       PRES   REMARKS
JACKSON        MOSUNNY   36  31  82 CALM      30.32R
LONDON         MOSUNNY   36  30  79 VRB3      30.34R
SOMERSET       NOT AVBL
MIDDLESBORO    SUNNY     32  32  98 CALM      30.36S
MONTICELLO     SUNNY     37  34  89 CALM      30.36R
$$




USA.gov is the U.S. government's official web portal to all federal, state and local government web resources and services.